Miscellaneous Local Product
Issued by NWS Hastings, NE

Home | Current Version | Previous Version | Graphics & Text | Print | Product List | Glossary On
Versions: 1 2 3 4 5 6 7 8 9 10 11 12 13 14 15 16 17 18 19 20 21 22 23 24 25 26 27 28 29 30 31 32 33 34 35 36 37 38 39 40 41 42 43 44 45 46 47 48 49 50
000
AXUS43 KGID 060102
MISGRI

GID CWA HOURLY WEATHER ROUNDUP
NATIONAL WEATHER SERVICE HASTINGS NE
800 PM CDT THU MAY 05 2016

NOTE: "FAIR" INDICATES FEW OR NO CLOUDS BELOW 12,000 FEET WITH NO
SIGNIFICANT WEATHER AND/OR OBSTRUCTIONS TO VISIBILITY.

...SOUTH CENTRAL NEBRASKA...

CITY           SKY/WX    TMP DP  RH WIND       PRES   REMARKS
GRAND ISLAND   CLEAR     74  43  32 S8        29.98S
HASTINGS       CLEAR     74  43  32 S7        29.99S
KEARNEY        CLEAR     73  45  35 S12       29.99F
ORD            CLEAR     74  48  39 S7        29.95S
YORK           CLEAR     75  37  25 S9        29.98S
AURORA         CLEAR     76  40  27 S6        29.98S
HOLDREGE       CLEAR     75  42  31 S10       30.00S
HEBRON         CLEAR     76  40  27 S5        30.00S

...NEBRASKA PANHANDLE...

CITY           SKY/WX    TMP DP  RH WIND       PRES   REMARKS
CHADRON        PTCLDY    78  50  37 S6        29.87S
ALLIANCE       CLOUDY    70  49  47 S8        29.92F
SCOTTSBLUFF    CLOUDY    77  44  30 SE6       29.92F
SIDNEY         CLOUDY    76  43  30 S12       29.98F

...WESTERN AND NORTH CENTRAL NEBRASKA...

CITY           SKY/WX    TMP DP  RH WIND       PRES   REMARKS
VALENTINE      CLEAR     79  42  26 S14       29.87F
AINSWORTH      CLEAR     75  46  34 S13       29.91F
ONEILL         CLEAR     76  47  36 S6        29.95S
BROKEN BOW     CLEAR     75  49  39 S8        29.97S
IMPERIAL       CLOUDY    74  46  36 S13       29.97S
NORTH PLATTE   CLEAR     74  48  39 S12       29.96S
MCCOOK         CLOUDY    74  49  41 SE10      29.98S

...EASTERN NEBRASKA...

CITY           SKY/WX    TMP DP  RH WIND       PRES   REMARKS
NORFOLK        CLEAR     72  42  34 S9        29.95S
SO SIOUX CITY  CLEAR     73  47  39 S12       29.95S
TEKAMAH        CLEAR     70  52  52 SE9       29.97S
COLUMBUS       CLEAR     75  39  27 SE5       29.98S
ALBION         CLEAR     73  42  31 S5        29.97S
OMAHA EPPLEY   MOCLDY    71  44  37 SE7       29.99S
OFFUTT AFB     CLEAR     71  43  36 SE3       29.98F
MILLARD        CLEAR     73  45  36 SE7       29.99S
LINCOLN        CLEAR     75  41  29 SE7       29.99F
NEBRASKA CITY  CLEAR     71  38  30 S5        30.01S
BEATRICE       CLEAR     73  43  34 S5        30.00S
FALLS CITY     CLEAR     70  41  34 E5        30.00F

...NORTHERN KANSAS...

CITY           SKY/WX    TMP DP  RH WIND       PRES   REMARKS
GOODLAND       CLOUDY    74  44  34 SE13      30.00S
HILL CITY      CLOUDY    74  48  39 SE6       30.00F
NORTON         CLEAR     73  43  33 SE6       29.99
PHILLIPSBURG   CLEAR     72  48  43 SE6       30.00S
SMITH CENTER   CLEAR     64  52  63 SE8       30.01R
BELOIT         CLEAR     73  39  29 SE5       29.99S
HAYS           CLEAR     72  48  43 SE9       30.01S
RUSSELL        CLEAR     71  51  49 SE7       30.00F
CONCORDIA      CLEAR     69  45  41 S7        30.00F
SALINA         CLEAR     76  43  30 E5        30.01S
TOPEKA         CLEAR     73  40  30 CALM      30.01S



USA.gov is the U.S. government's official web portal to all federal, state and local government web resources and services.